Flag for Canada Weather past 2 weeks in Surrey, British Columbia, Canada

Now
65 °F

Mild.


Feels Like: 65 °F
Forecast: 46 / 56 °F
Wind: 10 mph from North

Location: P. Meadows Coastal Station

Current Time: Apr 27, 2015 at 7:09:34 PM

Latest Report: Apr 27, 2015 at 6:00 PM


Visibility: N/A

Pressure: 30.04 "Hg

Humidity: 63%

Dew point: 52 °F

Location of SurreyLocation

Historic Weather in Surrey — Graph

°F

Surrey temperature yesterday

Maximum temperature yesterday: 60 °F (at 5:00 PM)
Minimum temperature yesterday: 36 °F (at 6:00 AM)
Average temperature yesterday: 49 °F

Past Weeks' High & Low Weather Summary

 TemperatureHumidityPressure
High72 °F (Apr 20, 4:00 PM)100% (Apr 14, 5:00 AM)30.54 "Hg (Apr 14, 5:00 AM)
Low36 °F (Apr 26, 6:00 AM)34% (Apr 22, 2:00 PM)29.72 "Hg (Apr 24, 5:00 AM)
Average49 °F76%30.10 "Hg
* Reported Apr 12 5:00 PM — Apr 27 5:00 PM, Surrey, Weather by CustomWeather, © 2015

Note: Actual official high and low records may vary slightly from our data, if they occured in-between our weather recording intervals... More about our weather records

Advertising

Surrey weather history for previous 24 hours

 ConditionsComfort  
Time TempWeatherWind HumidityBarometerVisibility
5:00 PM
Mon, Apr 27
64 °FMild.10 mph66%30.07 "HgN/A
4:00 PM63 °FMild.8 mph69%30.11 "HgN/A
3:00 PM61 °FCool.12 mph75%30.16 "HgN/A
2:00 PM60 °FCool.9 mph83%30.21 "HgN/A
1:00 PM56 °FCool.7 mph91%30.23 "HgN/A
12:00 PM52 °FCool.5 mph89%30.25 "HgN/A
11:00 AM52 °FCool.1 mph96%30.27 "HgN/A
10:00 AM50 °FCool.3 mph97%30.27 "HgN/A
9:00 AM49 °FCool.3 mph97%30.28 "HgN/A
8:00 AM48 °FCool.5 mph90%30.27 "HgN/A
7:00 AM48 °FCool.3 mph97%30.26 "HgN/A
6:00 AM46 °FCool.7 mph100%30.27 "HgN/A
5:00 AM47 °FCool.7 mph95%30.26 "HgN/A
4:00 AM47 °FCool.7 mph94%30.26 "HgN/A
3:00 AM48 °FCool.8 mph91%30.26 "HgN/A
2:00 AM49 °FCool.9 mph86%30.26 "HgN/A
1:00 AM49 °FCool.9 mph85%30.26 "HgN/A
12:00 AM50 °FCool.10 mph83%30.25 "HgN/A
11:00 PM
Sun, Apr 26
50 °FCool.2 mph92%30.26 "HgN/A
10:00 PM51 °FCool.5 mph85%30.26 "HgN/A
9:00 PM55 °FCool.5 mph66%30.23 "HgN/A
8:00 PM57 °FRefreshingly cool.5 mph48%30.20 "HgN/A
7:00 PM58 °FRefreshingly cool.1 mph49%30.20 "HgN/A
Weather by CustomWeather, © 2015

See weather overviewHow to use our weather pages